Location: Ergnies
(50.0854°N, 2.0375°E)
Time: 19:44:32
(UTC+00:00)

Cosmos 2263 Rocket - Pass Details

Date: 14 January 2026
Orbit: 821 x 849 km, 71.0° (Epoch: 13 February)

Event Time Altitude Azimuth Distance (km) Brightness Sun altitude
Exits shadow 05:10:00 12° 349° (N) 2,345 4.3 -24.2°
Drops below altitude 10° 05:11:12 10° 1° (N) 2,481 4.6 -24.0°
Sets 05:15:21 0° 30° (NNE) 3,423 5.7 -23.4°
